Find Starlink 3638

NORAD ID: 51786 Int'l Des: 2022-017 Owner: SPXS Country: US Constellation: starlink operational
LEOCIRCULAR

Live Position

Loading 3D Globe...

About Starlink 3638

Description loading...

Upcoming Passes

Passes for default location (London). Set your location on the main map for personalized predictions.

Altitude History

Loading altitude history...

Two-Line Element Set

1 51786U 22017U 26127.61039285 .00000065 00000-0 22196-4 0 9996
2 51786 53.2163 84.6164 0001480 70.6061 289.5091 15.08849040231178
Epoch: May 7, 2026 • Age: 7 hours

Current Status

Altitude 540.5 km
Velocity 7.60 km/s
Sub-Earth Point 29.75°N, 74.82°W
Launch Date Feb 25, 2022
Age 4.1 years
Type internet

Technical Details

Classification Payload
Mass 297.00 kg
Dry Mass 275.00 kg
Total Mass 297.00 kg
Length 0.20 m
Diameter 2.80 m
Span 9.00 m
Shape Box + pan
Manufacturer SPXS
Bus Type Starlink
Phase Status In Orbit
Owner/State SPXS/US

Most Searched